Home   Weather   Stellenbosch   Past weeks
Flag for South Africa

Past Weather in Stellenbosch, South Africa — Yesterday and Last 2 Weeks

Now
55 °F

Passing clouds.


Feels Like: 53 °F
Forecast: 62 / 48 °F
Wind: 9 mph from Northwest

Location: Cape Town International Airport

Current Time: Jul 16, 2019 at 11:23:34 pm

Latest Report: Jul 16, 2019 at 10:00 pm


Visibility: 6 mi

Pressure: 30.09 "Hg

Humidity: 94%

Dew Point: 54 °F

Location of StellenboschLocation

Past Weather in Stellenbosch — Graph

°F

Stellenbosch Temperature Yesterday

Maximum temperature yesterday: 68 °F (at 3:00 pm)
Minimum temperature yesterday: 46 °F (at 1:00 am)
Average temperature yesterday: 55 °F

High & Low Weather Summary for the Past Weeks

 TemperatureHumidityPressure
High68 °F (Jul 15, 3:00 pm)100% (Jul 2, 9:00 pm)30.33 "Hg (Jul 2, 9:00 pm)
Low41 °F (Jul 13, 5:00 am)52% (Jul 12, 3:00 pm)30.01 "Hg (Jul 6, 2:57 pm)
Average55 °F87%30.16 "Hg
* Reported Jul 1 10:00 pm — Jul 16 10:00 pm, Stellenbosch. Weather by CustomWeather, © 2019

Note: Actual official high and low records may vary slightly from our data, if they occured in-between our weather recording intervals... More about our weather records

Advertising

Stellenbosch Weather History for the Previous 24 Hours

Scroll right to see more
 ConditionsComfort  
Time TempWeatherWind HumidityBarometerVisibility
10:00 pm
Tue, Jul 16
55 °FPassing clouds.9 mph94%30.09 "Hg6 mi
9:00 pm55 °FPassing clouds.10 mph88%30.09 "Hg6 mi
8:00 pm54 °FPassing clouds.6 mph88%30.07 "HgN/A
7:00 pm57 °FPassing clouds.9 mph82%30.07 "HgN/A
6:00 pm59 °FPassing clouds.8 mph82%30.07 "HgN/A
5:00 pm61 °FPassing clouds.10 mph72%30.07 "HgN/A
4:00 pm63 °FPassing clouds.12 mph68%30.07 "HgN/A
3:00 pm63 °FPassing clouds.10 mph73%30.07 "HgN/A
2:00 pm61 °FPassing clouds.10 mph77%30.07 "HgN/A
1:00 pm61 °FSunny.13 mph77%30.09 "Hg10 mi
12:00 pm59 °FScattered clouds.10 mph82%30.12 "HgN/A
11:00 am57 °FScattered clouds.9 mph88%30.12 "Hg4 mi
10:26 am55 °FScattered clouds.12 mph94%30.12 "Hg4 mi
10:00 am54 °FFog.12 mph94%30.12 "Hg2 mi
9:00 am50 °FPassing clouds.5 mph94%30.09 "HgN/A
8:27 am48 °FClear.8 mph94%30.07 "Hg4 mi
8:00 am50 °FLight fog.10 mph100%30.07 "Hg3 mi
7:59 am50 °FLight fog.10 mph100%30.07 "Hg3 mi
7:00 am46 °FLight fog.5 mph100%30.04 "Hg2 mi
6:29 am45 °FLight fog.2 mph100%30.04 "Hg1 mi
6:00 am45 °FFog.5 mph100%30.04 "Hg1 mi
5:00 am46 °FFog.3 mph93%30.04 "Hg0 mi
4:00 am46 °FFog.5 mph100%30.07 "Hg0 mi
3:00 am45 °FFog.3 mph100%30.07 "Hg0 mi
2:00 am46 °FFog.1 mph100%30.09 "Hg1 mi
1:40 am46 °FFog.2 mph100%30.09 "Hg0 mi
1:00 am50 °FFog.2 mph94%30.09 "Hg1 mi
12:00 am55 °FClear.9 mph94%30.12 "Hg6 mi
11:00 pm
Mon, Jul 15
55 °FClear.9 mph94%30.12 "Hg6 mi
Weather by CustomWeather, © 2019

See weather overview

LIVE PARTIAL LUNAR ECLIPSE – Watch the eclipse as it happens